Weather History for Mena, AR

Change the Weather History Date:

Wednesday, February 5, 2014

  Actual Average (KFSM) Record (KFSM)
Temperature  
Mean Temperature 29 °F -  
Max Temperature 37 °F 51 °F 76 °F (1967)
Min Temperature 21 °F 31 °F 7 °F (1886)
Degree Days  
Heating Degree Days 36    
Moisture  
Dew Point 21 °F    
Average Humidity 75    
Maximum Humidity 100    
Minimum Humidity 64    
Precipitation  
Precipitation 0.00 in - - ()
Sea Level Pressure  
Sea Level Pressure 30.34 in    
Wind  
Wind Speed 11 mph (NW)    
Max Wind Speed 21 mph    
Max Gust Speed 29 mph    
Visibility 10 miles    
Events Rain    
Averages and records for this station are not official NWS values.
T = Trace of Precipitation, MM = Missing Value Source: NWS Daily Summary

Daily Weather History Graph

Daily Weather History Graph

Search for Another Location

Airport:

Trip Planner

Search our weather history database for the weather conditions in past years. The results will help you decide how hot, cold, wet, or windy it might be!

Date:

Astronomy

Feb. 05, 2014 Rise Set
Actual Time 7:11 AM CST 5:50 PM CST
Civil Twilight 6:45 AM CST 6:16 PM CST
Nautical Twilight 6:15 AM CST 6:46 PM CST
Astronomical Twilight 5:45 AM CST 7:16 PM CST
Moon 10:44 AM CST (2/5) No Moon Set
Length of Visible Light 11h 31m
Length of Day
10h 38m
Waxing Crescent, 39% of the Moon is Illuminated
Feb 5
Waxing Crescent
Feb 6
First Quarter
Feb 14
Full
Feb 22
Last Quarter
Mar 1
New

Hourly Weather History & Observations

Time (CST) Temp. Windchill Dew Point Humidity Pressure Visibility Wind Dir Wind Speed Gust Speed Precip Events Conditions
12:15 AM 37.4 °F 28.9 °F 35.6 °F 93% 30.01 in 10.0 mi WNW 13.8 mph 17.3 mph N/A   Overcast
12:35 AM 37.4 °F 30.3 °F 35.6 °F 93% 30.02 in 10.0 mi West 10.4 mph - N/A   Overcast
12:55 AM 35.6 °F 27.5 °F 35.6 °F 100% 30.03 in 10.0 mi WNW 11.5 mph 17.3 mph N/A   Overcast
1:15 AM 35.6 °F 27.1 °F 35.6 °F 100% 30.04 in 7.0 mi WNW 12.7 mph 18.4 mph N/A   Overcast
1:35 AM 35.6 °F 27.1 °F 33.8 °F 93% 30.05 in 10.0 mi WNW 12.7 mph 23.0 mph N/A   Overcast
1:55 AM 35.6 °F 25.5 °F 33.8 °F 93% 30.06 in 10.0 mi WNW 17.3 mph 24.2 mph N/A   Overcast
2:15 AM 35.6 °F 26.2 °F 32.0 °F 87% 30.08 in 10.0 mi WNW 15.0 mph 25.3 mph N/A   Overcast
2:35 AM 33.8 °F 24.3 °F 32.0 °F 93% 30.10 in 10.0 mi WNW 13.8 mph 23.0 mph N/A   Overcast
2:55 AM 33.8 °F 22.5 °F 32.0 °F 93% 30.09 in 10.0 mi NW 19.6 mph 24.2 mph N/A   Overcast
3:15 AM 33.8 °F 22.8 °F 32.0 °F 93% 30.11 in 10.0 mi NW 18.4 mph 26.5 mph N/A   Overcast
3:35 AM 33.8 °F 22.8 °F 30.2 °F 87% 30.13 in 10.0 mi NW 18.4 mph 28.8 mph N/A   Overcast
3:55 AM 33.8 °F 23.2 °F 28.4 °F 81% 30.14 in 10.0 mi NW 17.3 mph 27.6 mph N/A   Overcast
4:15 AM 32.0 °F 19.8 °F 26.6 °F 80% 30.15 in 10.0 mi WNW 20.7 mph 27.6 mph N/A   Overcast
4:35 AM 32.0 °F 22.1 °F 26.6 °F 80% 30.18 in 10.0 mi WNW 13.8 mph 25.3 mph N/A   Overcast
4:55 AM 32.0 °F 22.1 °F 24.8 °F 75% 30.19 in 10.0 mi WNW 13.8 mph 26.5 mph N/A   Overcast
5:15 AM 32.0 °F 25.6 °F 24.8 °F 75% 30.21 in 10.0 mi West 6.9 mph - N/A   Overcast
5:35 AM 32.0 °F 24.8 °F 23.0 °F 69% 30.23 in 10.0 mi NW 8.1 mph - N/A   Overcast
5:55 AM 30.2 °F 25.4 °F 23.0 °F 75% 30.24 in 10.0 mi WNW 4.6 mph - N/A   Overcast
6:15 AM 30.2 °F 20.8 °F 23.0 °F 75% 30.26 in 10.0 mi NNW 11.5 mph 16.1 mph N/A   Overcast
6:35 AM 30.2 °F 20.8 °F 23.0 °F 75% 30.26 in 10.0 mi NNW 11.5 mph 17.3 mph N/A Rain Light Freezing Rain
6:55 AM 30.2 °F 19.8 °F 21.2 °F 69% 30.28 in 10.0 mi NW 13.8 mph 25.3 mph N/A   Overcast
7:15 AM 28.4 °F 18.5 °F 21.2 °F 74% 30.30 in 10.0 mi NNW 11.5 mph 19.6 mph N/A   Light Freezing Rain
7:35 AM 28.4 °F 20.4 °F 21.2 °F 74% 30.31 in 10.0 mi NW 8.1 mph 19.6 mph N/A Rain Light Freezing Rain
7:55 AM 28.4 °F 18.5 °F 21.2 °F 74% 30.32 in 10.0 mi NW 11.5 mph 18.4 mph N/A Rain Light Freezing Rain
8:15 AM 28.4 °F 18.5 °F 21.2 °F 74% 30.33 in 10.0 mi NW 11.5 mph 17.3 mph N/A Rain Light Freezing Rain
8:35 AM 28.4 °F 19.7 °F 19.4 °F 69% 30.35 in 10.0 mi NNW 9.2 mph 19.6 mph N/A   Light Freezing Rain
8:55 AM 28.4 °F 19.7 °F 19.4 °F 69% 30.36 in 10.0 mi NNW 9.2 mph 19.6 mph N/A   Light Freezing Rain
9:15 AM 28.4 °F 19.7 °F 19.4 °F 69% 30.37 in 10.0 mi North 9.2 mph - N/A   Light Freezing Rain
9:35 AM 28.4 °F 21.2 °F 19.4 °F 69% 30.37 in 10.0 mi NW 6.9 mph - N/A Rain Light Freezing Rain
9:55 AM 28.4 °F 19.1 °F 19.4 °F 69% 30.39 in 10.0 mi NW 10.4 mph 18.4 mph N/A   Mostly Cloudy
10:15 AM 28.4 °F 20.4 °F 19.4 °F 69% 30.41 in 10.0 mi NNW 8.1 mph 20.7 mph N/A   Light Freezing Rain
10:35 AM 28.4 °F 18.0 °F 19.4 °F 69% 30.41 in 10.0 mi NNW 12.7 mph 21.9 mph N/A   Mostly Cloudy
10:55 AM 28.4 °F 18.5 °F 19.4 °F 69% 30.41 in 10.0 mi NW 11.5 mph 18.4 mph N/A   Light Freezing Rain
11:15 AM 28.4 °F 17.5 °F 19.4 °F 69% 30.41 in 10.0 mi NW 13.8 mph 20.7 mph N/A Rain Light Freezing Rain
11:35 AM 30.2 °F 22.6 °F 19.4 °F 64% 30.42 in 10.0 mi NNW 8.1 mph - N/A Rain Light Freezing Rain
11:55 AM 28.4 °F 18.0 °F 19.4 °F 69% 30.42 in 10.0 mi NNW 12.7 mph 17.3 mph N/A   Mostly Cloudy
12:15 PM 28.4 °F 19.1 °F 19.4 °F 69% 30.43 in 10.0 mi NNW 10.4 mph 18.4 mph N/A   Mostly Cloudy
12:35 PM 28.4 °F 19.1 °F 19.4 °F 69% 30.42 in 10.0 mi NNW 10.4 mph 16.1 mph N/A Rain Light Freezing Rain
12:55 PM 28.4 °F 19.7 °F 19.4 °F 69% 30.42 in 10.0 mi NNW 9.2 mph - N/A Rain Light Freezing Rain
1:15 PM 28.4 °F 20.4 °F 17.6 °F 64% 30.41 in 10.0 mi NNW 8.1 mph 17.3 mph N/A Rain Light Freezing Rain
1:35 PM 28.4 °F 19.1 °F 17.6 °F 64% 30.40 in 10.0 mi NW 10.4 mph - N/A   Light Freezing Rain
1:55 PM 28.4 °F 20.4 °F 17.6 °F 64% 30.41 in 10.0 mi NNW 8.1 mph - N/A   Light Freezing Rain
2:15 PM 28.4 °F 20.4 °F 17.6 °F 64% 30.41 in 10.0 mi NW 8.1 mph - N/A   Mostly Cloudy
2:35 PM 28.4 °F 19.7 °F 19.4 °F 69% 30.41 in 10.0 mi NNW 9.2 mph - N/A   Scattered Clouds
2:55 PM 28.4 °F 20.4 °F 19.4 °F 69% 30.41 in 10.0 mi WNW 8.1 mph - N/A   Mostly Cloudy
3:15 PM 28.4 °F 18.5 °F 19.4 °F 69% 30.41 in 10.0 mi NW 11.5 mph 16.1 mph N/A   Overcast
3:35 PM 28.4 °F 19.1 °F 17.6 °F 64% 30.42 in 10.0 mi NW 10.4 mph - N/A   Mostly Cloudy
3:55 PM 26.6 °F 16.2 °F 17.6 °F 69% 30.43 in 10.0 mi NW 11.5 mph - N/A   Overcast
4:15 PM 26.6 °F 18.2 °F 17.6 °F 69% 30.44 in 10.0 mi North 8.1 mph - N/A   Overcast
4:35 PM 26.6 °F 19.1 °F 17.6 °F 69% 30.45 in 10.0 mi NNW 6.9 mph - N/A   Scattered Clouds
4:55 PM 26.6 °F 19.1 °F 17.6 °F 69% 30.46 in 10.0 mi NNW 6.9 mph - N/A   Scattered Clouds
5:15 PM 26.6 °F 16.8 °F 17.6 °F 69% 30.48 in 10.0 mi West 10.4 mph - N/A   Mostly Cloudy
5:35 PM 24.8 °F 17.9 °F 17.6 °F 74% 30.48 in 10.0 mi WNW 5.8 mph - N/A   Overcast
5:55 PM 23.0 °F 13.9 °F 17.6 °F 80% 30.48 in 10.0 mi North 8.1 mph - N/A   Mostly Cloudy
6:15 PM 23.0 °F 17.0 °F 15.8 °F 74% 30.47 in 10.0 mi NNW 4.6 mph 16.1 mph N/A   Clear
6:35 PM 23.0 °F 17.0 °F 17.6 °F 80% 30.47 in 10.0 mi North 4.6 mph - N/A   Clear
6:55 PM 23.0 °F 14.7 °F 15.8 °F 74% 30.46 in 10.0 mi NNE 6.9 mph - N/A   Clear
7:15 PM 23.0 °F 15.8 °F 15.8 °F 74% 30.46 in 10.0 mi NNE 5.8 mph - N/A   Clear
7:35 PM 23.0 °F 18.4 °F 15.8 °F 74% 30.47 in 10.0 mi North 3.5 mph - N/A   Scattered Clouds
7:55 PM 23.0 °F 17.0 °F 15.8 °F 74% 30.47 in 10.0 mi North 4.6 mph - N/A   Scattered Clouds
8:15 PM 23.0 °F 14.7 °F 15.8 °F 74% 30.47 in 10.0 mi North 6.9 mph - N/A   Scattered Clouds
8:35 PM 23.0 °F 17.0 °F 15.8 °F 74% 30.47 in 10.0 mi North 4.6 mph - N/A   Scattered Clouds
8:55 PM 23.0 °F - 15.8 °F 74% 30.46 in 10.0 mi Calm Calm - N/A   Scattered Clouds
9:15 PM 23.0 °F 17.0 °F 17.6 °F 80% 30.47 in 10.0 mi NE 4.6 mph - N/A   Scattered Clouds
9:35 PM 23.0 °F 17.0 °F 17.6 °F 80% 30.48 in 10.0 mi NNE 4.6 mph - N/A   Scattered Clouds
9:55 PM 23.0 °F 17.0 °F 15.8 °F 74% 30.49 in 10.0 mi NE 4.6 mph - N/A   Clear
10:15 PM 23.0 °F 18.4 °F 15.8 °F 74% 30.49 in 10.0 mi NE 3.5 mph - N/A   Clear
10:35 PM 23.0 °F - 15.8 °F 74% 30.49 in 10.0 mi Calm Calm - N/A   Scattered Clouds
10:55 PM 23.0 °F 15.8 °F 15.8 °F 74% 30.49 in 10.0 mi NNW 5.8 mph - N/A   Scattered Clouds
11:15 PM 23.0 °F 18.4 °F 15.8 °F 74% 30.48 in 10.0 mi NNW 3.5 mph - N/A   Clear
11:35 PM 21.2 °F 13.6 °F 15.8 °F 80% 30.48 in 10.0 mi NNW 5.8 mph - N/A   Scattered Clouds
11:55 PM 21.2 °F 14.9 °F 14.0 °F 74% 30.48 in 10.0 mi North 4.6 mph - N/A   Clear